Home > Weather > Johor Bahru > Past weeks

Flag for Malaysia Past Weather in Johor Bahru, Malaysia — Yesterday and Last 2 Weeks

Now
84 °F

Passing clouds.


Feels Like: 96 °F
Forecast: 78 / 91 °F
Wind: 1 mph from East

Location: Singapore / Paya Lebar

Current Time: Jun 30, 2016 at 7:43:28 AM

Latest Report: Jun 30, 2016 at 7:00 AM


Visibility: N/A

Pressure: 29.83 "Hg

Humidity: 84%

Dew Point: 79 °F

Location of Johor BahruLocation

Past Weather in Johor Bahru — Graph

°F

Johor Bahru Temperature Yesterday

Maximum temperature yesterday: 95 °F (at 2:00 PM)
Minimum temperature yesterday: 82 °F (at 6:00 AM)
Average temperature yesterday: 89 °F

High & Low Weather Summary for the Past Weeks

 TemperatureHumidityPressure
High95 °F (Jun 28, 4:00 PM)100% (Jun 24, 5:00 AM)29.89 "Hg (Jun 24, 5:00 AM)
Low73 °F (Jun 24, 5:00 AM)41% (Jun 28, 5:00 PM)29.71 "Hg (Jun 15, 5:00 PM)
Average85 °F75%29.79 "Hg
* Reported Jun 15 6:00 AM — Jun 30 6:00 AM, Johor Bahru, Weather by CustomWeather, © 2016

Note: Actual official high and low records may vary slightly from our data, if they occured in-between our weather recording intervals... More about our weather records

Advertising

Johor Bahru Weather History for the Previous 24 Hours

Scroll right to see more
 ConditionsComfort  
Time TempWeatherWind HumidityBarometerVisibility
6:00 AM
Thu, Jun 30
84 °FPassing clouds.2 mph79%29.80 "HgN/A
5:00 AM84 °FPassing clouds.2 mph84%29.80 "HgN/A
11:00 PM
Wed, Jun 29
86 °FPassing clouds.3 mph79%29.83 "HgN/A
10:00 PM88 °FPassing clouds.5 mph70%29.83 "HgN/A
9:00 PM88 °FPassing clouds.3 mph59%29.83 "HgN/A
8:00 PM91 °FPassing clouds.3 mph49%29.80 "HgN/A
7:00 PM91 °FPartly sunny.3 mph49%29.80 "HgN/A
6:00 PM93 °FPartly sunny.7 mph49%29.77 "HgN/A
5:00 PM95 °FPartly sunny.10 mph44%29.77 "HgN/A
4:00 PM95 °FPartly sunny.9 mph47%29.77 "HgN/A
3:00 PM95 °FPartly sunny.8 mph47%29.77 "HgN/A
2:00 PM95 °FPartly sunny.8 mph50%29.80 "HgN/A
1:00 PM93 °FPartly sunny.8 mph56%29.83 "HgN/A
12:00 PM91 °FPartly sunny.8 mph59%29.83 "HgN/A
11:00 AM90 °FPartly sunny.7 mph63%29.83 "HgN/A
10:00 AM88 °FPartly sunny.5 mph70%29.86 "HgN/A
9:00 AM86 °FPartly sunny.5 mph75%29.86 "HgN/A
8:00 AM84 °FPartly sunny.No wind84%29.83 "HgN/A
7:00 AM82 °FPassing clouds.3 mph89%29.80 "HgN/A
Weather by CustomWeather, © 2016

See weather overviewHow to use our weather pages